Погода в Медведках

Россия / Костромская область     58°09′41″N   41°48′50″E
темп.,
°C
ветер,
м/с
пор.,
м/с
влажн.,
%
обл.,
%
осадки,
мм/ч
давл.,
гПа
погр.,
м
12 мая, ср
ср1200:00+9юв22735 0.0 102926
03:00+8юв22815 0.0 102913
06:00+11в12814 0.0 102961
09:00+18в23650 0.0 1028420
12:00+22в23500 0.0 1027945
15:00+23в35447 0.0 10261550
18:00+22в36600 0.0 1023195
21:00+16вюв248482 0.4 102382
13 мая, чт
чт1300:00+14вюв398975 0.1 1023175
03:00+14вюв378799 0.1 1023151
06:00+15вюв38869 0.0 1022249
09:00+19юв596714 0.0 1022765
12:00+22юв69583 0.4 10211657
15:00+23юв58475 0.9 10182102
18:00+15ююв4138884 0.7 1018521
21:00+15юв41192100 1.0 1017515
14 мая, пт
пт1400:00+14юв4995100 0.1 1016483
03:00+14ююз3691100 0.3 1017448
06:00+13ююз379313 0.0 1018345
09:00+16ююз476655 0.0 1019677
12:00+18ююз4763100 0.0 10191179
15:00+20ююз475624 0.1 10181758
18:00+19ю3672100 0.1 1017353
21:00+15ю389080 0.3 1016193
15 мая, сб
сб1500:00+14ю2696100 1.6 1015145
03:00+14в2397100 3.6 101361
06:00+16ююв3109561 1.0 1013325
09:00+20ю4977100 1.0 1013581
12:00+23ю4662100 0.3 10121162
15:00+22ююз4776100 5.1 1011616
18:00+18ююз378772 1.9 1010218
21:00+16ю412915 2.7 1009343
16 мая, вс
вс1600:00+15ю412955 0.1 1009339
03:00+14ю310977 0.1 1009263
06:00+15ююз410940 0.0 1010452
09:00+18ююз59745 0.0 1010869
12:00+21юз695788 0.0 10111529
15:00+21юз695851 0.0 10111733
18:00+19юз58689 0.2 1011994
21:00+14юз37880 0.3 1012143